Location: Dalton
(34.7700°N, 84.9700°W)
Time: 08:25:39
(UTC-04:00)

Tiangong 1 - Pass Details

Date: 07 October 2017
Orbit: 293 x 320 km, 42.8° (Epoch: 21 October)

Event Time Altitude Azimuth Distance (km) Brightness Sun altitude
Rises 20:19:04 0° 277° (W) 2,035 6.7 -13.9°
Reaches altitude 10° 20:21:22 10° 296° (WNW) 1,200 4.7 -14.4°
Maximum altitude 20:23:26 19° 347° (NNW) 808 2.9 -14.8°
Enters shadow 20:24:35 15° 21° (NNE) 945 2.9 -15.1°
